Location: Little Arabia
(41.4620°N, 81.7687°W)
Time: 20:35:32
(UTC+00:00)

FengYun 1-2 T - Pass Details

Date: 29 October 2020
Orbit: 846 x 882 km, 98.7° (Epoch: 03 December)

Event Time Altitude Azimuth Distance (km) Brightness Sun altitude
Rises 22:55:40 0° 156° (SSE) 3,468 7.3 -6.4°
Reaches altitude 10° 22:58:04 10° 153° (SSE) 2,531 6.5 -6.8°
Maximum altitude 23:03:39 66° 73° (ENE) 956 4.3 -7.8°
Drops below altitude 10° 23:09:14 10° 352° (N) 2,533 6.7 -8.8°
Sets 23:11:38 0° 350° (N) 3,471 7.4 -9.3°
